This demonstration page uses our WeatherBlox Daily Observations layout. Learn more.

Left ArrowRight Arrow

41.86663, -103.66717

Hourly Observations for March 24, 2016

Temp ( °F °C ) Dew Point ( °F °C ) Humidity (%) Winds ( mph kmh ) Pressure ( in mb ) Visibility ( mi km ) Precip ( " mm )
12:53 am 00:53 Clear 24 -4.4 23 -5 96 96 NW 7 11 30.18 1022 10 16 N/A
1:53 am 01:53 Clear 23 -5 22 -5.6 96 96 WNW 5 7 30.18 1022 10 16 N/A
2:53 am 02:53 Clear 22 -5.6 20 -6.7 92 92 NW 3 6 30.16 1021 10 16 N/A
3:53 am 03:53 Clear 20 -6.7 19 -7.2 96 96 NW 6 9 30.14 1021 10 16 N/A
4:53 am 04:53 Clear 19 -7.2 17 -8.3 92 92 NW 5 7 30.15 1021 9 14 N/A
5:53 am 05:53 Clear 20 -6.7 18 -7.8 92 92 NNW 5 7 30.13 1020 10 16 N/A
6:53 am 06:53 Sunny 18 -7.8 16 -8.9 92 92 WNW 6 9 30.13 1020 9 14 N/A
7:53 am 07:53 Sunny 22 -5.6 21 -6.1 96 96 NW 7 11 30.11 1020 10 16 N/A
8:53 am 08:53 Sunny 29 -1.7 28 -2.2 96 96 NW 7 11 30.08 1019 10 16 N/A
9:53 am 09:53 Sunny 35 1.7 30 -1.1 82 82 WNW 6 9 30.05 1018 10 16 N/A
10:53 am 10:53 Sunny 42 5.6 36 2.2 79 79 WNW 12 19 30.01 1016 10 16 N/A
11:53 am 11:53 Sunny 47 8.3 38 3.3 71 71 W 16 26 29.99 1016 10 16 N/A
12:53 pm 12:53 Sunny 50 10 41 5 71 71 W 14 22 29.96 1015 10 16 N/A
1:53 pm 13:53 Mostly Sunny 52 11.1 27 -2.8 38 38 WNW 14 22 29.94 1014 10 16 N/A
2:53 pm 14:53 Mostly Sunny 53 11.7 24 -4.4 32 32 W 12 19 29.91 1013 10 16 N/A
3:53 pm 15:53 Partly Cloudy 52 11.1 24 -4.4 34 34 W 17 28 29.90 1012 10 16 N/A
4:53 pm 16:53 Mostly Cloudy 52 11.1 29 -1.7 41 41 WSW 17 28 29.87 1012 10 16 N/A
5:53 pm 17:53 Sunny 50 10 28 -2.2 43 43 W 17 28 29.85 1011 10 16 N/A
6:53 pm 18:53 Sunny 48 8.9 28 -2.2 46 46 W 15 24 29.85 1011 10 16 N/A
7:53 pm 19:53 Clear 45 7.2 28 -2.2 52 52 W 12 19 29.84 1011 10 16 N/A
8:53 pm 20:53 Clear 44 6.7 28 -2.2 53 53 W 9 15 29.83 1010 10 16 N/A
9:53 pm 21:53 Partly Cloudy 41 5 28 -2.2 60 60 SSW 7 11 29.83 1010 10 16 N/A
10:53 pm 22:53 Cloudy 39 3.9 30 -1.1 70 70 NNE 3 6 29.80 1009 10 16 N/A
11:53 pm 23:53 Cloudy 39 3.9 30 -1.1 70 70 NNW 8 13 29.79 1009 10 16 N/A

Powered by AerisWeather